Regional Weather Roundup
Issued by NWS

Home | Current Version | Previous Version | Graphics & Text | Print | Product List | Glossary On
Versions: 1 2 3 4 5 6 7 8 9 10 11 12 13 14 15 16 17 18 19 20 21 22 23 24 25 26 27 28 29 30 31 32 33 34 35 36 37 38 39 40 41 42 43 44 45 46 47 48 49 50
000
ASUS43 KBIS 250210
RWRND

NORTH DAKOTA REGIONAL WEATHER ROUNDUP
NATIONAL WEATHER SERVICE BISMARCK ND
900 PM CDT MON APR 24 2017

NOTE: "FAIR" INDICATES FEW OR NO CLOUDS BELOW 12,000 FEET WITH NO
SIGNIFICANT WEATHER AND/OR OBSTRUCTIONS TO VISIBILITY.


NDZ001>003-009>011-017-250300-
NORTHWEST NORTH DAKOTA

CITY           SKY/WX    TMP DP  RH WIND       PRES   REMARKS
WILLISTON      CLOUDY    32  26  78 NE15      29.78R
MINOT          CLOUDY    33  28  81 N10       29.77R
MINOT AFB      CLOUDY    32  27  80 NE16      29.77R
$$

NDZ018>021-031>035-040>046-250300-
SOUTHWEST NORTH DAKOTA

CITY           SKY/WX    TMP DP  RH WIND       PRES   REMARKS
BISMARCK       CLOUDY    35  30  82 N14       29.71R
DICKINSON      CLOUDY    31  27  85 NE16      29.68R WCI  20
GARRISON         N/A     31  27  85 NE10      29.74R
HETTINGER ARPT CLOUDY    36  31  82 NE15      29.67R
$$

NDZ004>008-012>016-024-026-027-054-250300-
NORTHEAST NORTH DAKOTA

CITY           SKY/WX    TMP DP  RH WIND       PRES   REMARKS
GRAND FORKS    CLOUDY    36  34  92 N17G24    29.66R
GRND FRKS AFB  CLOUDY    32  32 100 N15       29.68R
DEVILS LAKE    CLOUDY    31  30  96 NE16      29.72R WCI  20
$$

NDZ022-023-025-028>030-036>039-047>053-250300-
SOUTHEAST NORTH DAKOTA

CITY           SKY/WX    TMP DP  RH WIND       PRES   REMARKS
FARGO          CLOUDY    39  37  92 N20       29.59R
JAMESTOWN      CLOUDY    33  32  96 N15       29.65R
$$




USA.gov is the U.S. government's official web portal to all federal, state and local government web resources and services.